GFSSE_prec_cthk_231.txt.gz
RH
43 45 49 49 51 53 52 52 51 50 48 46 49 50 50 50 57 59 57 62 63 56 53 54 53 54 57 59 59 58 56 55 54 52 50 50 51 53 53 57 53 53 54
39 41 46 48 50 51 51 51 49 49 48 47 49 53 58 58 55 51 59 52 51 58 54 50 47 48 48 51 53 55 53 53 50 48 46 46 46 45 47 49 49 49 47
38 38 44 46 48 51 52 52 50 50 49 48 50 52 55 59 62 64 53 52 47 51 56 49 44 46 49 49 47 46 51 52 50 48 45 45 44 45 43 47 50 50 47
40 37 43 46 46 48 51 52 52 52 53 53 50 51 54 58 60 60 62 54 51 51 54 48 47 48 49 49 52 52 57 54 54 50 49 46 44 45 44 44 45 51 49
43 38 42 45 47 49 52 53 56 57 56 54 51 51 52 57 65 63 62 61 55 55 52 50 50 53 51 51 57 59 59 51 46 43 47 42 40 46 48 45 46 45 43
46 39 41 45 50 55 56 58 59 60 61 58 54 52 53 59 66 67 65 62 59 58 60 61 54 56 57 59 62 72 76 66 57 48 42 43 39 38 39 39 41 41 42
47 43 39 45 52 55 57 58 59 60 63 64 62 56 53 58 62 64 62 61 56 58 62 73 62 58 57 62 72 78 72 70 66 57 49 43 42 40 47 40 38 39 41
49 49 40 43 51 55 56 57 58 60 61 63 65 63 61 59 58 60 59 59 58 60 62 66 67 60 62 61 61 65 71 76 75 63 57 52 49 45 45 47 41 44 48
51 54 52 40 48 50 52 54 55 57 61 63 63 63 64 64 63 63 60 58 57 58 61 64 67 68 62 64 63 58 64 71 78 76 65 62 60 57 47 46 44 43 47
52 54 55 42 40 45 47 49 52 55 60 62 64 66 68 70 70 66 64 62 62 60 62 62 63 64 67 68 63 63 66 70 73 76 77 69 64 65 56 53 50 47 48
64 60 60 51 37 40 42 46 49 53 58 61 67 78 87 87 81 80 74 68 63 62 62 61 62 62 61 62 66 68 67 68 72 76 79 76 71 76 65 59 57 57 54
66 62 60 57 39 40 43 49 51 52 56 64 78 84 86 86 86 86 81 74 70 67 68 65 62 64 64 64 65 64 69 67 73 72 71 75 80 82 84 71 64 59 59
69 65 58 59 49 46 50 50 48 54 62 70 76 88 90 87 85 84 83 82 81 84 79 75 66 64 69 64 64 65 64 63 63 64 71 71 75 83 90 84 84 68 62
68 67 57 55 61 58 68 58 55 58 64 70 78 91 90 86 84 85 86 87 86 83 80 79 71 67 67 66 65 68 68 66 61 66 71 70 69 70 67 68 73 76 74
67 67 67 66 68 67 71 66 58 60 66 69 77 87 90 93 88 88 89 88 85 84 72 70 69 64 59 57 58 58 66 70 66 66 62 65 70 71 68 67 66 65 66
71 75 70 76 78 76 72 66 57 66 66 66 72 75 82 87 87 87 89 88 86 86 79 76 66 53 51 57 56 56 60 66 66 67 62 60 65 65 68 65 62 58 57
73 81 76 76 77 75 70 62 58 57 60 64 63 64 70 78 80 85 90 88 90 91 89 87 75 62 56 56 57 55 56 54 57 58 58 62 58 63 61 64 55 52 52
70 80 82 82 79 71 64 61 60 57 54 52 53 55 55 59 62 65 76 82 84 87 90 89 82 78 76 68 66 67 65 62 63 67 65 64 69 66 66 67 72 66 55
67 73 77 75 70 57 56 58 59 59 55 50 51 50 49 49 50 52 57 64 73 76 78 84 84 81 82 74 78 78 73 71 72 75 72 73 82 76 74 74 70 72 68
73 75 69 62 56 56 55 58 60 63 62 61 57 48 46 45 42 43 44 49 51 62 67 72 79 83 83 84 82 80 79 80 78 76 73 68 77 75 80 74 74 73 74
74 76 77 73 68 64 61 60 58 62 62 64 64 65 58 50 44 42 37 40 45 48 50 63 68 77 78 80 79 78 83 81 82 74 76 75 71 76 78 80 83 78 78
62 71 72 70 71 69 68 64 64 63 66 67 65 66 65 61 58 58 57 51 39 35 41 42 49 61 67 73 69 76 79 78 80 77 73 75 71 77 76 76 74 74 76
51 58 64 63 63 65 66 67 66 62 62 64 65 67 68 67 68 67 63 62 62 52 45 43 39 40 46 56 55 59 62 68 75 74 70 70 70 73 74 75 73 70 79
73 77 72 74 70 68 66 64 63 65 65 64 66 70 73 74 73 73 72 69 67 67 63 60 59 52 44 49 48 59 65 72 72 65 56 54 65 65 67 67 67 69 75
73 72 75 79 79 77 81 83 80 69 65 66 68 70 71 75 75 76 76 73 73 70 72 70 71 71 68 57 52 41 56 70 61 64 67 58 64 62 52 63 65 69 73
64 68 68 55 75 78 78 81 76 77 77 70 60 63 61 63 66 69 70 74 71 72 75 74 73 76 75 73 71 62 57 67 64 62 62 48 58 55 50 54 61 65 66

GFSSE_prec_cthk_234.txt.gz
RH
44 46 49 50 49 49 50 49 48 47 47 48 49 52 56 56 54 57 62 57 53 56 58 59 60 62 63 60 57 55 53 51 52 53 57 62 70 66 57 55 60 58 58
41 46 49 50 50 49 50 49 48 47 48 51 56 55 53 54 54 58 52 55 54 51 50 50 52 54 55 56 56 52 52 51 48 48 49 51 53 51 53 49 47 49 57
39 45 47 49 50 50 50 50 49 48 48 50 53 55 60 62 58 51 51 45 51 55 50 46 46 47 48 50 51 51 52 48 47 45 44 43 44 47 48 50 48 45 47
37 41 45 49 51 50 50 51 50 49 51 51 53 54 56 59 61 62 51 48 48 51 46 44 48 48 47 46 47 52 53 52 47 46 42 41 44 44 48 56 52 50 46
39 38 43 46 50 50 51 53 53 54 54 53 53 54 56 59 59 59 63 52 51 49 48 46 49 51 48 49 54 59 53 49 44 43 41 36 38 42 43 44 47 43 44
40 38 42 45 48 49 52 57 60 61 59 56 54 55 58 62 65 62 64 58 55 54 53 50 51 52 50 52 55 58 51 47 43 39 39 36 35 37 41 43 44 42 40
43 37 41 46 49 54 56 59 61 62 64 64 60 55 56 60 62 61 62 57 57 60 64 61 52 53 55 57 66 71 65 60 50 43 38 38 36 35 36 36 37 41 46
46 39 38 45 51 54 57 59 61 65 65 66 66 62 60 62 62 61 61 59 59 60 64 65 59 56 56 59 66 68 68 64 60 50 43 42 41 42 44 41 37 39 44
49 47 38 42 48 51 55 57 60 64 66 66 67 66 64 64 64 63 61 59 59 60 63 64 62 57 57 58 57 59 63 68 68 60 53 52 49 46 46 47 43 43 47
50 54 44 39 45 48 52 54 58 62 66 67 71 70 72 70 68 67 63 62 60 60 60 62 62 62 59 60 61 57 59 66 69 75 72 64 58 56 53 50 46 45 45
53 55 53 42 40 45 49 51 53 56 60 65 72 80 88 82 82 79 71 65 64 62 63 62 61 61 62 62 59 58 61 64 67 70 74 74 67 67 62 56 55 51 49
58 57 58 49 38 43 49 50 51 55 59 67 87 90 91 92 89 86 82 78 70 65 64 62 62 63 63 63 63 66 63 64 64 65 69 74 73 69 76 70 62 56 56
61 57 57 56 43 48 51 49 51 56 61 81 89 93 90 88 89 88 85 80 84 82 78 71 65 67 63 60 61 61 62 62 64 64 69 68 74 79 83 82 76 64 59
62 60 56 59 52 56 59 59 54 56 71 86 90 91 89 87 87 88 88 88 85 87 86 82 72 69 66 62 61 65 65 64 61 61 66 68 70 71 71 74 75 80 84
66 63 58 55 59 63 65 61 54 62 71 81 85 92 94 92 90 90 90 90 87 81 73 75 69 66 60 58 56 58 62 62 62 59 63 67 67 70 67 64 63 64 67
70 69 59 62 63 63 71 61 60 65 74 75 79 88 89 91 90 92 90 88 86 83 79 72 61 58 57 58 53 56 58 62 63 64 58 57 61 66 64 62 61 60 59
74 78 72 70 75 73 68 57 58 66 68 67 72 77 82 84 85 89 92 92 92 89 86 84 75 61 54 54 54 54 54 51 55 57 58 58 53 54 58 65 64 57 55
75 81 75 77 78 75 67 61 60 57 58 59 60 64 67 71 70 70 84 88 90 89 89 83 79 77 73 67 61 59 58 58 61 61 64 61 64 65 61 65 70 69 61
74 80 77 77 77 72 60 60 60 57 55 52 50 54 55 55 55 57 60 74 83 78 79 86 86 86 80 71 74 72 69 67 66 66 65 67 71 74 75 71 74 71 68
70 75 72 77 69 62 61 62 64 64 64 62 53 49 50 53 49 51 51 52 60 67 68 74 81 81 85 82 80 78 74 75 72 71 72 69 72 76 78 77 74 74 74
73 72 70 67 66 66 66 66 68 66 66 69 70 64 56 53 48 46 46 42 46 49 51 60 72 78 79 83 82 79 79 77 74 76 73 74 71 75 78 79 80 81 77
68 75 73 71 71 73 73 71 72 70 68 68 71 71 70 63 59 59 60 55 43 41 41 45 49 61 67 74 71 69 76 74 75 70 71 76 74 76 79 78 78 78 77
57 66 72 73 74 71 70 69 68 67 67 65 68 71 74 74 73 71 70 69 67 64 53 43 42 43 47 54 61 60 64 67 67 68 65 66 72 67 68 72 75 72 72
71 72 74 78 66 69 66 67 66 70 70 67 66 69 73 76 77 77 80 77 76 73 73 70 63 58 46 43 47 53 54 57 64 63 60 64 59 61 62 68 71 71 71
77 76 69 68 79 75 75 73 75 75 74 69 71 71 71 79 81 80 80 81 81 80 78 77 75 74 74 72 62 60 47 54 62 62 55 60 59 64 68 56 62 65 66
69 75 74 74 70 67 61 69 75 78 77 75 73 67 65 63 75 74 76 78 81 83 78 84 87 78 77 77 77 72 66 52 55 67 54 52 51 54 65 56 54 64 64

GFSSE_prec_cthk_237.txt.gz
RH
48 48 47 51 51 48 48 45 44 44 47 50 54 55 54 55 59 58 57 58 60 60 62 65 64 61 58 57 53 50 50 51 54 59 63 64 63 58 54 53 54 56 57
43 48 46 46 47 47 46 45 45 47 52 51 53 55 54 55 57 57 56 53 52 51 54 55 55 56 55 51 51 47 46 46 46 49 57 59 51 44 44 45 48 55 58
42 45 46 47 47 47 47 46 46 46 49 51 55 59 58 57 54 52 47 54 52 55 48 48 51 52 53 50 46 46 44 42 41 44 45 48 46 44 44 43 45 52 51
41 45 46 48 47 48 47 47 46 47 48 50 51 56 61 63 60 51 48 48 53 48 47 48 47 48 48 48 48 49 46 42 41 39 43 46 48 49 51 49 45 41 43
40 43 46 48 48 49 51 50 49 51 51 50 52 55 60 61 60 61 53 51 51 52 47 50 51 48 46 49 55 54 48 44 41 39 37 40 44 43 46 45 43 41 39
38 41 45 48 49 51 53 55 60 59 56 54 54 56 62 68 64 64 59 56 53 50 49 49 52 50 48 53 60 56 50 46 41 40 39 39 44 42 42 41 40 37 37
38 39 44 47 50 52 56 60 63 64 65 62 56 55 58 62 61 63 61 58 60 64 57 52 51 52 51 54 57 57 56 47 44 39 38 36 33 33 36 38 38 39 39
42 39 44 47 51 56 60 63 66 65 67 68 64 60 58 59 64 63 64 59 59 64 67 59 54 53 54 57 68 68 64 59 51 44 40 39 40 40 38 34 34 39 42
44 41 41 47 52 56 60 64 66 66 68 70 69 63 61 61 59 58 61 61 59 60 62 64 57 56 57 58 62 65 67 66 61 54 49 46 44 42 43 40 39 39 45
48 42 37 45 50 53 57 61 65 68 72 72 74 69 67 63 61 58 59 60 59 60 60 60 61 58 56 58 59 59 60 68 69 68 57 57 52 50 48 47 45 44 44
50 51 40 39 46 51 53 54 57 61 69 77 79 81 85 70 71 66 61 60 61 61 60 60 60 61 60 57 61 61 59 62 66 66 72 70 62 57 58 53 54 50 48
52 55 52 39 44 49 52 53 55 59 66 77 83 86 90 84 78 79 75 68 64 61 62 62 61 62 61 61 61 60 61 60 60 63 66 68 72 69 66 65 62 59 55
57 57 58 44 48 52 50 48 52 55 69 81 88 89 88 86 86 84 79 81 80 73 65 63 64 64 61 61 59 59 60 61 62 63 62 66 71 71 71 82 83 75 61
60 58 61 55 52 58 56 56 52 56 83 87 91 92 91 88 86 86 86 85 82 84 80 73 70 67 63 61 59 59 59 58 58 59 62 62 64 66 71 75 80 83 78
65 64 59 64 56 63 60 59 53 63 78 85 89 93 92 90 90 92 90 91 86 75 72 71 67 63 59 57 57 59 61 61 59 58 57 63 65 68 66 67 64 63 68
73 68 65 61 64 67 65 60 59 68 76 85 89 93 95 94 94 94 94 91 84 81 76 67 60 57 57 55 53 55 55 58 58 59 53 59 60 65 67 68 66 63 62
78 80 68 69 69 69 72 61 60 74 77 78 81 83 88 90 91 92 96 94 93 88 90 80 71 60 53 54 53 54 51 49 53 56 59 59 55 56 63 68 66 60 56
83 85 80 73 80 77 71 61 62 66 65 68 71 70 77 78 75 76 90 95 94 90 89 85 77 75 68 63 60 56 57 59 60 62 65 66 68 63 62 66 68 69 67
84 85 80 79 83 79 67 63 64 65 61 61 58 60 62 64 61 60 67 87 90 83 86 90 84 85 79 72 78 72 69 68 68 68 66 67 72 71 76 69 73 75 71
79 83 78 80 78 69 65 65 63 64 64 64 59 55 56 58 59 55 58 57 66 73 74 82 87 80 86 81 77 80 78 78 77 74 71 72 71 76 79 78 74 73 73
79 79 78 80 68 67 65 65 65 68 70 73 75 72 59 54 57 54 53 52 48 52 56 59 70 78 79 81 83 83 78 78 81 79 78 77 73 77 79 81 80 81 80
76 81 83 76 71 71 71 69 69 70 71 73 73 76 76 70 64 64 65 64 57 47 45 48 51 58 68 70 75 71 72 78 76 75 75 76 78 76 76 80 81 79 80
69 75 70 72 68 68 71 70 67 68 69 69 70 71 78 76 75 76 75 73 71 71 65 59 47 45 47 52 56 61 64 71 72 72 71 68 71 75 70 72 76 75 74
57 65 68 65 65 67 63 65 63 63 66 69 68 66 70 73 75 76 77 78 78 77 74 76 73 61 58 51 43 41 49 52 56 61 67 65 70 64 65 61 67 73 74
70 69 68 61 61 68 73 69 65 74 74 73 72 70 70 72 77 79 78 81 80 77 78 77 73 72 72 73 74 67 61 52 48 56 67 64 60 65 63 68 70 57 63
67 68 68 66 68 69 67 66 66 74 73 75 74 73 70 67 66 71 71 71 74 72 76 77 75 76 80 74 75 79 77 71 67 51 59 71 60 56 54 61 67 61 58

GFSSE_prec_cthk_240.txt.gz
RH
54 50 52 50 50 46 43 44 46 49 55 57 52 52 56 57 56 57 62 66 67 69 68 64 60 58 55 52 51 53 55 56 58 57 61 65 64 61 54 57 61 59 57
51 49 52 49 47 44 43 44 46 50 52 54 56 54 57 56 57 53 52 52 54 57 59 59 58 56 52 49 46 46 47 49 55 53 50 50 47 47 47 50 54 53 51
51 50 51 47 47 45 44 45 47 51 53 54 56 57 58 57 51 50 54 50 54 51 53 55 55 54 51 46 45 46 46 46 48 47 50 54 46 43 45 52 50 51 52
51 53 51 47 48 46 44 45 46 48 50 51 56 62 65 58 50 47 53 63 49 46 46 47 54 51 48 46 49 50 45 43 44 47 60 60 53 46 44 42 42 47 49
51 55 52 47 49 51 49 47 48 50 49 51 54 59 60 62 64 52 50 55 58 47 51 50 50 48 48 51 56 56 52 42 43 50 53 54 57 46 44 44 41 38 45
50 56 49 49 50 52 55 55 56 54 52 52 54 62 68 66 64 66 55 53 52 51 49 53 50 47 52 59 60 57 50 46 48 49 50 47 53 42 40 40 39 39 40
48 53 49 50 51 53 55 59 61 62 59 56 54 57 63 65 66 67 60 65 61 52 52 53 53 52 53 60 58 54 49 47 51 47 48 50 41 36 38 39 39 38 38
48 51 51 49 51 55 59 63 63 64 65 64 60 56 58 64 65 66 59 59 66 67 58 55 56 57 55 57 60 61 59 50 56 52 48 50 36 35 35 35 38 43 41
49 51 51 53 52 57 62 69 64 65 67 67 65 62 59 57 62 62 64 63 61 63 67 66 56 58 59 58 67 69 66 61 63 59 56 52 42 41 41 36 37 40 46
49 49 55 56 59 65 68 72 67 67 72 73 71 68 61 58 58 60 63 61 60 62 60 63 66 54 57 60 61 64 66 71 73 67 62 64 50 47 46 45 43 42 43
54 44 50 57 59 61 63 63 63 67 72 78 78 74 79 73 69 66 64 61 60 61 61 60 62 62 58 59 62 61 60 68 78 77 78 65 58 54 52 50 50 47 46
59 59 50 56 58 60 63 61 68 68 81 79 81 84 81 73 77 74 70 64 61 61 62 63 62 61 61 70 69 63 64 68 69 73 71 69 68 65 62 61 56 54 52
62 66 57 50 58 64 61 61 64 84 83 80 87 89 85 84 83 83 83 80 76 68 72 70 67 64 70 71 71 71 72 71 71 70 71 67 65 71 70 69 74 73 67
69 69 69 56 61 66 68 65 64 76 85 89 92 87 86 85 84 84 85 84 85 84 79 76 75 73 67 66 65 67 67 66 67 70 71 65 62 66 67 69 76 83 87
72 71 71 66 60 64 64 65 64 71 86 88 88 87 87 92 92 89 87 83 81 75 75 72 69 67 68 67 68 69 65 66 64 67 69 66 64 63 63 70 69 69 71
74 74 68 69 63 67 62 61 63 71 87 93 92 89 93 93 92 91 88 82 82 80 76 66 65 65 64 61 62 63 63 64 66 66 66 65 63 62 66 72 70 67 64
78 80 73 66 71 69 65 59 65 76 84 89 89 93 95 95 94 89 92 84 83 84 85 71 63 62 59 59 62 61 58 56 63 65 65 65 63 59 64 70 68 62 59
85 85 81 72 73 74 70 58 64 69 71 78 80 86 94 90 81 83 88 88 81 84 84 81 73 78 71 71 67 66 64 66 66 65 69 73 74 67 65 65 69 69 67
79 82 82 73 79 77 67 59 62 66 62 65 64 66 65 63 63 61 74 77 78 78 84 86 79 84 80 77 77 76 75 75 75 73 72 70 77 77 80 77 71 73 73
74 75 78 76 78 71 68 61 60 61 62 61 58 54 52 56 53 52 58 56 60 68 74 81 85 84 83 84 85 82 85 82 85 81 80 78 76 79 80 81 82 77 75
70 70 72 73 70 66 65 66 66 65 67 66 66 64 54 49 47 48 50 51 48 47 52 57 68 75 83 84 84 83 82 81 83 84 83 83 81 78 80 84 83 85 87
70 71 69 68 62 62 65 66 70 70 69 68 67 66 67 69 60 53 53 56 55 51 43 42 46 52 62 72 78 78 76 78 83 81 80 79 83 83 79 78 83 85 82
68 67 68 69 67 66 67 69 66 66 65 66 67 66 67 70 70 62 63 62 63 62 62 57 56 52 51 54 55 59 61 70 73 74 76 75 73 75 79 76 73 78 77
67 67 64 68 67 67 64 66 65 67 70 68 67 66 61 60 61 63 64 65 67 69 68 70 69 68 66 60 60 59 51 52 57 61 65 72 72 69 70 64 70 68 70
71 69 73 61 62 70 70 71 72 70 74 77 73 68 65 61 60 61 66 68 69 72 73 70 72 74 77 78 73 73 76 72 66 63 55 68 76 71 64 69 67 72 73
71 72 70 66 62 64 63 66 67 65 74 75 74 73 72 70 67 63 63 66 63 64 64 71 79 82 79 80 83 76 77 82 81 80 74 59 62 79 72 61 64 64 66

GFSSE_prec_cthk_246.txt.gz
RH
49 47 48 42 42 46 52 52 53 49 49 50 54 54 55 64 65 67 73 68 67 61 56 54 54 54 53 53 52 52 57 59 62 64 60 57 54 57 63 73 62 62 61
48 46 44 40 40 41 44 46 52 56 56 52 55 53 53 55 56 60 64 66 60 59 55 51 49 48 46 47 48 45 46 50 52 50 46 45 51 57 58 58 53 61 66
47 45 43 40 40 46 51 51 49 52 55 58 58 57 56 50 51 51 59 56 55 56 55 52 43 42 43 48 49 49 56 62 62 52 46 45 48 46 45 43 48 54 54
47 49 44 42 40 42 45 46 46 49 54 58 58 59 52 55 59 60 57 47 49 53 52 48 43 40 42 48 46 50 60 60 69 52 52 42 40 41 45 44 45 47 45
52 49 44 45 45 43 45 45 45 46 48 53 58 61 59 50 56 64 61 51 54 47 55 47 44 41 49 49 45 47 60 61 54 58 44 43 40 41 40 42 41 42 40
55 45 44 46 48 50 50 47 48 48 49 52 59 60 61 62 51 51 55 49 47 49 51 53 45 48 56 53 45 46 51 51 75 83 63 49 40 44 41 40 35 37 36
52 42 43 46 48 51 55 55 53 52 51 50 53 59 62 62 61 55 55 48 50 54 50 46 49 53 57 55 49 48 51 55 64 57 76 52 39 37 37 38 38 38 38
55 47 43 45 49 53 57 58 58 58 56 53 50 52 58 60 62 61 64 68 53 53 55 49 49 52 56 53 53 55 51 52 56 70 63 53 35 35 37 37 38 40 41
53 44 44 45 50 59 68 65 63 62 60 59 53 50 52 56 59 61 58 58 65 65 54 56 58 54 50 49 56 58 56 58 60 59 61 51 40 36 36 38 40 39 42
51 48 47 49 54 64 76 74 64 61 64 64 59 53 53 59 58 58 58 59 59 58 63 62 52 53 52 51 58 65 64 67 77 65 82 59 51 44 39 40 41 44 45
49 50 53 56 61 67 65 71 69 69 64 64 62 63 70 70 69 70 67 61 56 56 56 56 59 57 53 54 55 58 60 63 81 77 97 73 64 49 47 48 47 48 48
50 46 64 68 65 60 72 59 72 79 80 77 67 69 70 71 64 65 65 63 59 58 57 57 56 57 57 57 62 64 58 54 67 84 88 78 70 61 59 56 54 53 52
56 53 53 70 60 69 64 62 79 81 78 80 80 73 74 77 75 71 70 66 63 59 60 63 62 59 61 64 75 92 70 67 66 76 72 71 67 66 61 63 66 61 62
55 57 59 45 51 70 67 58 67 80 81 81 82 78 84 91 87 82 79 79 80 81 75 74 71 68 65 74 65 66 67 72 68 75 87 87 73 66 63 60 63 64 66
63 59 59 58 49 58 63 62 69 77 90 86 83 83 86 89 83 79 79 77 77 74 73 71 67 69 68 65 61 61 60 63 64 66 64 68 85 72 65 62 61 61 60
69 66 62 59 55 53 58 59 63 71 83 82 83 83 83 85 82 81 78 80 80 77 75 69 73 72 70 60 66 59 59 62 60 62 64 68 63 67 67 64 61 62 61
70 68 84 62 59 55 64 58 60 77 79 77 75 82 84 81 80 82 79 75 83 86 79 70 65 66 59 56 57 54 56 55 58 67 64 64 60 62 66 62 64 63 60
69 66 75 70 61 63 68 58 61 69 60 69 71 78 73 69 75 78 77 75 84 78 79 82 84 77 72 74 64 64 64 67 70 68 65 67 71 70 66 67 69 63 59
59 72 81 76 70 66 68 63 59 64 59 57 62 63 66 57 62 62 64 69 72 77 83 79 78 80 72 73 75 70 76 76 78 77 80 80 71 78 75 77 69 68 64
77 74 78 75 72 70 65 61 61 64 68 77 72 74 70 84 60 43 59 69 53 66 78 77 77 76 77 76 75 78 73 76 79 81 83 83 83 77 79 78 79 75 71
82 68 69 73 73 66 65 61 65 65 70 65 70 72 78 66 58 46 48 48 74 46 47 56 48 53 66 78 77 78 80 79 69 77 75 83 76 80 78 74 73 81 84
84 78 61 64 64 62 64 69 74 70 69 67 65 72 68 69 68 64 62 63 65 71 58 61 62 56 48 55 68 76 71 71 84 71 79 75 73 78 75 75 80 74 78
76 71 57 64 66 63 72 71 74 68 69 65 61 65 69 63 59 67 68 68 70 72 68 69 68 71 70 65 64 60 59 58 58 59 79 67 69 66 79 71 79 75 66
72 67 59 64 66 64 63 70 76 74 73 65 79 89 70 62 58 62 63 67 75 79 83 80 76 76 76 77 78 78 77 70 69 82 65 63 74 74 58 70 62 69 74
60 63 62 64 64 70 69 75 79 77 76 72 81 80 72 89 72 74 79 73 74 72 70 75 79 81 80 79 79 80 83 85 84 77 79 78 78 67 67 61 50 68 65
66 65 64 68 65 63 64 66 68 74 76 67 62 67 70 70 72 77 83 79 73 80 82 79 76 77 78 73 75 79 79 81 84 82 79 81 80 79 89 77 74 88 89